Batman, Turkey

10:04 PM +03 on January 22, 2017 (GMT +0300)
Batman Air Base

Weather History for LTCJ - July, 2013

Change the Weather History Date:

Friday, July 19, 2013

  Actual Average (LTCC) Record (LTCC)
Temperature  
Mean Temperature 83 °F -  
Max Temperature 100 °F 100 °F 107 °F (1998)
Min Temperature 66 °F 72 °F 69 °F (1997)
Cooling Degree Days 18    
Growing Degree Days 33 (Base 50)    
Moisture  
Dew Point 48 °F    
Average Humidity 32    
Maximum Humidity 68    
Minimum Humidity 12    
Precipitation  
Precipitation 0.00 in - - ()
Sea Level Pressure  
Sea Level Pressure 29.62 in    
Wind  
Wind Speed 4 mph ()    
Max Wind Speed 8 mph    
Max Gust Speed -    
Visibility 6.2 miles    
Events      
Averages and records for this station are not official NWS values.
T = Trace of Precipitation, MM = Missing Value Source: Averaged Metar Reports

Daily Weather History Graph

Daily Weather History Graph

Search for Another Location

Airport or City:

Trip Planner

Search our weather history database for the weather conditions in past years. The results will help you decide how hot, cold, wet, or windy it might be!

Date:

Astronomy

Jul. 19, 2013 Rise Set
Actual Time 5:08 AM EEST 7:35 PM EEST
Civil Twilight 4:37 AM EEST 8:05 PM EEST
Nautical Twilight 4:00 AM EEST 8:42 PM EEST
Astronomical Twilight 3:19 AM EEST 9:23 PM EEST
Moon 4:14 PM EEST (7/19) 1:29 AM EEST (7/19)
Length of Visible Light 15h 27m
Length of Day
14h 26m
Waxing Gibbous, 84% of the Moon is Illuminated
Jul 19
Waxing Gibbous
Jul 22
Full
Jul 29
Last Quarter
Aug 7
New
Aug 14
First Quarter

Hourly Weather History & Observations

Time (EEST) Temp. Heat Index Dew Point Humidity Pressure Visibility Wind Dir Wind Speed Gust Speed Precip Events Conditions
12:20 AM 80.6 °F - 48.2 °F 32% 29.68 in - SSW 3.5 mph - N/A   Clear
12:50 AM 78.8 °F - 50.0 °F 36% 29.68 in - Calm Calm - N/A   Clear
1:20 AM 78.8 °F - 50.0 °F 36% 29.68 in - Variable 1.2 mph - N/A   Clear
1:50 AM 77.0 °F - 51.8 °F 41% 29.68 in - Variable 2.3 mph - N/A   Clear
2:20 AM 73.4 °F - 53.6 °F 50% 29.68 in - NE 4.6 mph - N/A   Clear
2:50 AM 71.6 °F - 53.6 °F 53% 29.65 in - Variable 1.2 mph - N/A   Clear
3:20 AM 68.0 °F - 55.4 °F 64% 29.65 in - NNE 6.9 mph - N/A   Clear
3:50 AM 68.0 °F - 53.6 °F 60% 29.65 in - NNE 5.8 mph - N/A   Clear
4:20 AM 66.2 °F - 55.4 °F 68% 29.65 in - NNE 5.8 mph - N/A   Clear
4:50 AM 68.0 °F - 53.6 °F 60% 29.65 in - NNE 6.9 mph - N/A   Clear
5:20 AM 66.2 °F - 53.6 °F 64% 29.65 in - NE 6.9 mph - N/A   Clear
6:20 AM 71.6 °F - 55.4 °F 57% 29.65 in - NE 8.1 mph - N/A   Clear
6:50 AM 75.2 °F - 55.4 °F 50% 29.65 in - NE 6.9 mph - N/A   Clear
7:20 AM 77.0 °F - 57.2 °F 50% 29.65 in - NW 4.6 mph - N/A   Clear
7:50 AM 78.8 °F - 55.4 °F 44% 29.65 in - West 3.5 mph - N/A   Clear
8:20 AM 82.4 °F 81.4 °F 53.6 °F 37% 29.65 in - Variable 2.3 mph - N/A   Clear
8:50 AM 86.0 °F - 51.8 °F 31% 29.65 in - West 3.5 mph - N/A   Clear
9:20 AM 87.8 °F - 51.8 °F 29% 29.65 in - West 5.8 mph - N/A   Clear
9:50 AM 89.6 °F - 50.0 °F 26% 29.65 in - WSW 5.8 mph - N/A   Clear
10:20 AM 91.4 °F - 51.8 °F 26% 29.65 in - West 6.9 mph - N/A   Clear
10:50 AM 93.2 °F - 46.4 °F 20% 29.65 in - West 6.9 mph - N/A   Clear
11:20 AM 93.2 °F - 44.6 °F 19% 29.62 in - NW 6.9 mph - N/A   Clear
11:50 AM 95.0 °F - 44.6 °F 18% 29.62 in - WNW 5.8 mph - N/A   Clear
12:20 PM 95.0 °F - 46.4 °F 19% 29.62 in - West 8.1 mph - N/A   Clear
12:50 PM 96.8 °F - 42.8 °F 16% 29.62 in - Variable 5.8 mph - N/A   Clear
1:20 PM 95.0 °F - 41.0 °F 15% 29.59 in 6.2 mi WNW 8.1 mph - N/A   Partly Cloudy
1:50 PM 96.8 °F - 41.0 °F 15% 29.59 in 6.2 mi West 8.1 mph - N/A   Partly Cloudy
2:20 PM 98.6 °F - 41.0 °F 14% 29.59 in 6.2 mi West 6.9 mph - N/A   Partly Cloudy
2:50 PM 98.6 °F - 37.4 °F 12% 29.59 in 6.2 mi West 6.9 mph - N/A   Partly Cloudy
3:20 PM 98.6 °F - 39.2 °F 13% 29.59 in 6.2 mi West 8.1 mph - N/A   Partly Cloudy
3:50 PM 98.6 °F - 39.2 °F 13% 29.59 in 6.2 mi WSW 4.6 mph - N/A   Partly Cloudy
4:20 PM 100.4 °F - 41.0 °F 13% 29.56 in 6.2 mi South 4.6 mph - N/A   Partly Cloudy
4:50 PM 98.6 °F - 39.2 °F 13% 29.56 in 6.2 mi SW 8.1 mph - N/A   Partly Cloudy
5:20 PM 98.6 °F - 41.0 °F 14% 29.56 in - SW 8.1 mph - N/A   Clear
5:50 PM 96.8 °F - 41.0 °F 15% 29.56 in - SSW 6.9 mph - N/A   Clear
6:20 PM 96.8 °F - 41.0 °F 15% 29.56 in - WSW 6.9 mph - N/A   Clear
6:50 PM 93.2 °F - 46.4 °F 20% 29.56 in 6.2 mi SW 4.6 mph - N/A   Partly Cloudy
7:20 PM 91.4 °F - 46.4 °F 21% 29.56 in 6.2 mi SW 3.5 mph - N/A   Partly Cloudy
7:50 PM 89.6 °F - 48.2 °F 24% 29.56 in 6.2 mi Variable 1.2 mph - N/A   Partly Cloudy
8:20 PM 84.2 °F - 46.4 °F 27% 29.59 in 6.2 mi Variable 1.2 mph - N/A   Partly Cloudy
8:50 PM 82.4 °F - 44.6 °F 26% 29.59 in 6.2 mi ENE 3.5 mph - N/A   Partly Cloudy
9:20 PM 78.8 °F - 46.4 °F 32% 29.59 in - North 6.9 mph - N/A   Clear
9:50 PM 80.6 °F - 50.0 °F 34% 29.62 in - West 3.5 mph - N/A   Clear
10:20 PM 80.6 °F - 48.2 °F 32% 29.62 in - Calm Calm - N/A   Clear
10:50 PM 77.0 °F - 46.4 °F 34% 29.62 in - NE 5.8 mph - N/A   Clear
11:20 PM 73.4 °F - 51.8 °F 47% 29.62 in - NNE 6.9 mph - N/A   Clear
11:50 PM 73.4 °F - 51.8 °F 47% 29.62 in - NNE 8.1 mph - N/A   Clear